DW1354 Weather Reports


Display with metric or nautical units.
time (UTC)temp
F
wind
direction
speed
MPH
gust
MPH
rain 1hr
in
rain 24hr
in
rain mn
in
humidity
%
barometer
mb
20220521151517 88 0.0 1.0 0.00 0.00 0.00 64 1018.2
20220521150515 87 0.0 0.0 0.00 0.00 0.00 66 1018.2
20220521145515 86 0.0 0.0 0.00 0.00 0.00 65 1018.1
20220521144517 86 0.0 0.0 0.00 0.00 0.00 66 1018.1
20220521143515 86 0.0 0.0 0.00 0.00 0.00 64 1018.0
20220521142515 86 0.0 0.0 0.00 0.00 0.00 68 1017.9
20220521141517 85 0.0 0.0 0.00 0.00 0.00 69 1017.9
20220521140517 84 0.0 0.0 0.00 0.00 0.00 70 1017.9
20220521135516 83 0.0 0.0 0.00 0.00 0.00 71 1017.8
20220521134516 82 0.0 0.0 0.00 0.00 0.00 70 1017.9
20220521133517 81 0.0 0.0 0.00 0.00 0.00 73 1017.7
20220521132516 81 0.0 0.0 0.00 0.00 0.00 75 1017.8
20220521131515 80 0.0 0.0 0.00 0.00 0.00 76 1017.7
20220521130515 79 0.0 0.0 0.00 0.00 0.00 75 1017.6
20220521125515 78 0.0 0.0 0.00 0.00 0.00 77 1017.4
20220521124515 76 0.0 0.0 0.00 0.00 0.00 80 1017.3
20220521123515 75 0.0 0.0 0.00 0.00 0.00 84 1017.2
20220521122515 74 0.0 0.0 0.00 0.00 0.00 86 1017.1
20220521121515 73 0.0 0.0 0.00 0.00 0.00 87 1017.0
20220521120515 73 0.0 0.0 0.00 0.00 0.00 86 1016.8
20220521115516 73 0.0 0.0 0.00 0.00 0.00 86 1016.7
20220521114515 72 0.0 0.0 0.00 0.00 0.00 85 1016.8
20220521113517 72 0.0 0.0 0.00 0.00 0.00 85 1016.7
20220521112515 72 0.0 0.0 0.00 0.00 0.00 85 1016.6
20220521111515 72 0.0 0.0 0.00 0.00 0.00 85 1016.4
20220521110515 71 0.0 0.0 0.00 0.00 0.00 84 1016.2
20220521105515 71 0.0 0.0 0.00 0.00 0.00 83 1015.9
20220521104516 71 0.0 0.0 0.00 0.00 0.00 82 1015.6
20220521103515 71 0.0 0.0 0.00 0.00 0.00 82 1015.2
20220521102515 71 0.0 0.0 0.00 0.00 0.00 81 1015.1
20220521101515 72 0.0 0.0 0.00 0.00 0.00 79 1015.1
20220521100515 72 0.0 0.0 0.00 0.00 0.00 77 1014.9
20220521095515 73 0.0 0.0 0.00 0.00 0.00 77 1014.9
20220521094515 73 0.0 0.0 0.00 0.00 0.00 76 1014.8
20220521093515 73 0.0 0.0 0.00 0.00 0.00 77 1014.3
20220521092515 73 0.0 0.0 0.00 0.00 0.00 77 1013.9
20220521091515 74 0.0 0.0 0.00 0.00 0.00 75 1013.6
20220521090517 75 0.0 0.0 0.00 0.00 0.00 74 1013.5
20220521085517 76 0.0 0.0 0.00 0.00 0.00 73 1013.2
20220521084516 76 0.0 0.0 0.00 0.00 0.00 72 1013.1
20220521083515 76 0.0 0.0 0.00 0.00 0.00 72 1013.0
20220521082515 76 0.0 0.0 0.00 0.00 0.00 72 1012.9
20220521081515 76 0.0 0.0 0.00 0.00 0.00 72 1012.9
20220521080515 77 0.0 0.0 0.00 0.00 0.00 71 1012.9
20220521075515 77 0.0 0.0 0.00 0.00 0.00 70 1012.7
20220521074515 77 0.0 0.0 0.00 0.00 0.00 71 1012.6
20220521073515 77 0.0 0.0 0.00 0.00 0.00 72 1012.5
20220521072515 77 0.0 0.0 0.00 0.00 0.00 73 1012.5
20220521071515 77 0.0 0.0 0.00 0.00 0.00 73 1012.5
20220521070515 77 0.0 0.0 0.00 0.00 0.00 74 1012.5
20220521065515 77 0.0 0.0 0.00 0.00 0.00 75 1012.6
20220521064515 77 0.0 0.0 0.00 0.00 0.00 75 1012.7
20220521063515 77 0.0 0.0 0.00 0.00 0.00 74 1012.6
20220521062515 77 0.0 0.0 0.00 0.00 0.00 75 1012.6
20220521061515 78 0.0 0.0 0.00 0.00 0.00 75 1012.5
20220521060515 77 0.0 0.0 0.00 0.00 0.00 76 1012.4
20220521055515 78 0.0 0.0 0.00 0.00 0.00 76 1012.3
20220521054515 78 0.0 0.0 0.00 0.00 0.00 76 1012.4
20220521053515 78 0.0 0.0 0.00 0.00 0.00 76 1012.3
20220521052515 78 0.0 0.0 0.00 0.00 0.00 76 1012.5
20220521051515 78 0.0 0.0 0.00 0.00 0.00 75 1012.5
20220521050515 79 0.0 0.0 0.00 0.00 0.00 75 1012.5
20220521045515 79 0.0 0.0 0.00 0.00 0.00 75 1012.5
20220521044517 79 0.0 0.0 0.00 0.00 0.00 74 1012.6
20220521043516 79 0.0 0.0 0.00 0.00 0.00 74 1012.5
20220521042515 80 0.0 0.0 0.00 0.00 0.00 73 1012.5
20220521041516 80 0.0 0.0 0.00 0.00 0.00 73 1012.5
20220521040516 80 0.0 0.0 0.00 0.00 0.00 73 1012.3
20220521035516 80 0.0 0.0 0.00 0.00 0.00 72 1012.3
20220521034516 80 0.0 0.0 0.00 0.00 0.00 72 1012.2
20220521033515 80 0.0 0.0 0.00 0.00 0.00 72 1012.2
20220521032515 81 0.0 0.0 0.00 0.00 0.00 72 1012.3
20220521031515 81 0.0 0.0 0.00 0.00 0.00 72 1012.2
20220521030518 81 0.0 0.0 0.00 0.00 0.00 72 1012.2
20220521025515 81 0.0 0.0 0.00 0.00 0.00 71 1012.2
20220521024515 81 0.0 0.0 0.00 0.00 0.00 71 1012.2
20220521023515 81 0.0 0.0 0.00 0.00 0.00 71 1012.0
20220521022516 81 0.0 0.0 0.00 0.00 0.00 70 1011.9
20220521021515 81 0.0 0.0 0.00 0.00 0.00 70 1011.8
20220521020515 80 0.0 0.0 0.00 0.00 0.00 70 1011.8
20220521015515 81 0.0 0.0 0.00 0.00 0.00 69 1011.7
20220521014516 81 0.0 0.0 0.00 0.00 0.00 68 1011.6
20220521013515 81 0.0 0.0 0.00 0.00 0.00 68 1011.6
20220521012515 81 0.0 0.0 0.00 0.00 0.00 67 1011.3
20220521011515 81 0.0 0.0 0.00 0.00 0.00 68 1011.3
20220521010515 81 0.0 0.0 0.00 0.00 0.00 67 1011.2
20220521005515 81 0.0 0.0 0.00 0.00 0.00 67 1011.0
20220521004515 81 0.0 0.0 0.00 0.00 0.00 67 1010.8
20220521003515 81 0.0 0.0 0.00 0.00 0.00 67 1010.7
20220521002515 81 0.0 0.0 0.00 0.00 0.00 66 1010.7
20220521001515 81 0.0 0.0 0.00 0.00 0.00 67 1010.7
20220521000515 82 0.0 0.0 0.00 0.00 0.00 66 1010.7
20220520235516 82 0.0 0.0 0.00 0.00 0.00 66 1010.4
20220520234515 82 0.0 0.0 0.00 0.00 0.00 67 1010.4
20220520233515 82 0.0 0.0 0.00 0.00 0.00 67 1010.3
20220520232515 82 0.0 0.0 0.00 0.00 0.00 68 1010.3
20220520231515 82 0.0 0.0 0.00 0.00 0.00 69 1010.1
20220520230515 81 0.0 0.0 0.00 0.00 0.00 71 1010.2
20220520225515 82 0.0 0.0 0.00 0.00 0.00 74 1010.1
20220520224516 82 0.0 0.0 0.00 0.00 0.00 76 1010.1
20220520223516 82 0.0 0.0 0.00 0.00 0.00 77 1010.1
20220520222515 82 0.0 0.0 0.00 0.00 0.00 78 1009.9
20220520221515 82 0.0 0.0 0.00 0.00 0.00 78 1009.9
20220520220515 82 0.0 0.0 0.00 0.00 0.00 78 1009.9
20220520215517 83 0.0 0.0 0.00 0.00 0.00 80 1010.0
20220520214515 83 0.0 0.0 0.00 0.00 0.00 82 1010.1
20220520213515 83 0.0 0.0 0.00 0.00 0.00 82 1010.0
20220520212515 83 0.0 0.0 0.00 0.00 0.00 82 1010.1
20220520211515 83 0.0 0.0 0.00 0.00 0.00 82 1010.1
20220520210515 83 0.0 0.0 0.00 0.00 0.00 81 1010.2
20220520205515 83 0.0 0.0 0.00 0.00 0.00 80 1010.2
20220520204515 83 0.0 0.0 0.00 0.00 0.00 79 1010.3
20220520203515 84 0.0 0.0 0.00 0.00 0.00 77 1010.4
20220520202517 83 0.0 0.0 0.00 0.00 0.00 76 1010.5
20220520201516 83 0.0 0.0 0.00 0.00 0.00 73 1010.6
20220520200515 83 0.0 0.0 0.00 0.00 0.00 76 1010.7
20220520195515 83 0.0 0.0 0.00 0.00 0.00 77 1010.8
20220520194515 83 0.0 0.0 0.00 0.00 0.00 76 1010.8
20220520193515 83 0.0 0.0 0.00 0.00 0.00 74 1010.9
20220520192516 83 0.0 0.0 0.00 0.00 0.00 73 1011.0
20220520191517 83 0.0 0.0 0.00 0.00 0.00 73 1011.0
20220520190516 83 0.0 0.0 0.00 0.00 0.00 73 1011.2
20220520185518 84 0.0 0.0 0.00 0.00 0.00 71 1011.3
20220520184516 84 0.0 0.0 0.00 0.00 0.00 71 1011.3
20220520183517 84 0.0 0.0 0.00 0.00 0.00 70 1011.3
20220520182517 84 0.0 0.0 0.00 0.00 0.00 71 1011.2
20220520181516 83 0.0 0.0 0.00 0.00 0.00 73 1011.4
20220520180517 83 0.0 0.0 0.00 0.00 0.00 74 1011.4
20220520175518 83 0.0 0.0 0.00 0.00 0.00 70 1011.6
20220520174516 83 0.0 0.0 0.00 0.00 0.00 69 1011.4
20220520173516 83 0.0 0.0 0.00 0.00 0.00 71 1011.1
20220520172517 84 0.0 0.0 0.00 0.00 0.00 69 1011.5
20220520171516 84 0.0 0.0 0.00 0.00 0.00 69 1011.5
20220520170516 84 0.0 0.0 0.00 0.00 0.00 66 1011.6
20220520165516 85 0.0 0.0 0.00 0.00 0.00 67 1011.6
20220520164516 85 0.0 0.0 0.00 0.00 0.00 66 1011.7
20220520163516 85 0.0 0.0 0.00 0.00 0.00 65 1011.2
20220520162516 85 0.0 0.0 0.00 0.00 0.00 64 1011.3
20220520161516 84 0.0 0.0 0.00 0.00 0.00 67 1011.3
20220520160516 83 0.0 0.0 0.00 0.00 0.00 69 1011.2
20220520155516 82 0.0 0.0 0.00 0.00 0.00 69 1010.9
20220520154516 80 0.0 0.0 0.00 0.00 0.00 74 1011.2
20220520153516 80 0.0 0.0 0.00 0.00 0.00 72 1011.4
20220520152517 80 0.0 0.0 0.00 0.00 0.00 70 1011.7